Location: Newark
(41.0400°S, 62.7845°W)
Time: 01:02:00
(UTC+00:00)

Altair - All Passes

Search period start: 07 December 2021 00:00
Search period end: 17 December 2021 00:00
Orbit: 1502 x 1682 km, 47.2° (Epoch: 05 December)

Date Brightness Start Highest point End Pass type
(mag) Time Alt. Az. Time Alt. Az. Time Alt. Az.
07 Dec - 05:09:19 10° NNW 05:17:34 34° NE 05:26:07 10° ESE visible
07 Dec - 07:11:48 10° WNW 07:21:33 88° NNE 07:31:43 10° ESE visible
07 Dec - 09:17:16 10° W 09:27:07 62° S 09:37:15 10° ESE daylight
07 Dec - 11:22:54 10° WSW 11:33:03 75° SSE 11:43:18 10° ENE daylight
07 Dec - 13:28:03 10° WSW 13:37:51 54° NW 13:47:35 10° NNE daylight
07 Dec - 15:36:01 10° W 15:40:59 15° WNW 15:45:55 10° NNW daylight
08 Dec - 04:44:32 10° N 04:52:30 31° NE 05:00:43 10° ESE visible
08 Dec - 06:46:39 10° NW 06:56:21 84° NNE 07:06:28 10° ESE visible
08 Dec - 08:52:00 10° W 09:01:49 63° S 09:11:56 10° ESE daylight
08 Dec - 10:57:40 10° WSW 11:07:47 73° SSE 11:18:01 10° ENE daylight
08 Dec - 13:02:47 10° WSW 13:12:40 58° NW 13:22:32 10° NE daylight
08 Dec - 15:10:10 10° W 15:15:56 17° WNW 15:21:41 10° NNW daylight
09 Dec - 04:19:48 10° N 04:27:26 28° NE 04:35:19 10° ESE visible
09 Dec - 06:21:31 10° NW 06:31:09 80° NNE 06:41:13 10° ESE visible
09 Dec - 08:26:44 10° W 08:36:31 64° S 08:46:38 10° ESE daylight
09 Dec - 10:32:26 10° WSW 10:42:29 70° SSE 10:52:43 10° E daylight
09 Dec - 12:37:33 10° WSW 12:47:30 62° NW 12:57:28 10° NE daylight
09 Dec - 14:44:28 10° W 14:50:53 19° NW 14:57:18 10° NNW daylight
10 Dec - 03:55:06 10° N 04:02:23 26° NE 04:09:52 10° ESE visible
10 Dec - 05:56:24 10° NW 06:05:58 76° NNE 06:15:58 10° ESE visible
10 Dec - 08:01:28 10° W 08:11:13 65° S 08:21:20 10° ESE visible
10 Dec - 10:07:12 10° WSW 10:17:13 68° SSE 10:27:25 10° E daylight
10 Dec - 12:12:18 10° WSW 12:22:19 66° NW 12:32:22 10° NE daylight
10 Dec - 14:18:51 10° W 14:25:49 21° NW 14:32:46 10° N daylight
11 Dec - 03:30:28 10° N 03:37:20 23° NE 03:44:23 10° E visible
11 Dec - 05:31:18 10° NW 05:40:47 71° NE 05:50:42 10° ESE visible
11 Dec - 07:36:13 10° W 07:45:56 66° SSW 07:56:03 10° ESE visible
11 Dec - 09:41:57 10° WSW 09:51:55 67° SSE 10:02:06 10° E daylight
11 Dec - 11:47:05 10° WSW 11:57:08 70° NW 12:07:14 10° NE daylight
11 Dec - 13:53:19 10° W 14:00:45 24° NW 14:08:11 10° N daylight
12 Dec - 03:05:55 10° NNE 03:12:18 21° NE 03:18:49 10° E visible
12 Dec - 05:06:15 10° NW 05:15:37 67° NE 05:25:27 10° ESE visible
12 Dec - 07:10:58 10° W 07:20:40 67° SSW 07:30:45 10° ESE visible
12 Dec - 09:16:43 10° WSW 09:26:38 65° S 09:36:47 10° E daylight
12 Dec - 11:21:51 10° WSW 11:31:56 75° NW 11:42:05 10° NE daylight
12 Dec - 13:27:51 10° WSW 13:35:40 26° NW 13:43:30 10° N daylight
13 Dec - 02:41:27 10° NNE 02:47:16 18° NE 02:53:12 10° E visible
13 Dec - 04:41:12 10° NW 04:50:29 63° NE 05:00:11 10° ESE visible
13 Dec - 06:45:43 10° W 06:55:23 69° SSW 07:05:28 10° ESE visible
13 Dec - 08:51:29 10° WSW 09:01:20 64° S 09:11:27 10° E daylight
13 Dec - 10:56:38 10° WSW 11:06:43 79° NNW 11:16:55 10° NE daylight
13 Dec - 13:02:25 10° WSW 13:10:35 29° NW 13:18:46 10° N daylight
14 Dec - 02:17:07 10° NNE 02:22:15 16° ENE 02:27:28 10° E visible
14 Dec - 04:16:10 10° NW 04:25:20 58° NE 04:34:55 10° ESE visible
14 Dec - 06:20:29 10° WNW 06:30:07 71° SSW 06:40:11 10° ESE visible
14 Dec - 08:26:15 10° WSW 08:36:02 63° S 08:46:08 10° E daylight
14 Dec - 10:31:26 10° WSW 10:41:30 83° NNW 10:51:44 10° NE daylight
14 Dec - 12:37:01 10° WSW 12:45:29 31° NW 12:53:59 10° N daylight
15 Dec - 01:52:59 10° NNE 01:57:14 14° ENE 02:01:34 10° E visible
15 Dec - 03:51:10 10° NNW 04:00:13 54° NE 04:09:39 10° ESE visible
15 Dec - 05:55:15 10° WNW 06:04:52 74° SSW 06:14:55 10° ESE visible
15 Dec - 08:01:00 10° WSW 08:10:44 62° S 08:20:48 10° E visible
15 Dec - 10:06:14 10° WSW 10:16:17 87° NNW 10:26:31 10° ENE daylight
15 Dec - 12:11:40 10° WSW 12:20:23 34° NW 12:29:08 10° NNE daylight
16 Dec - 01:29:10 10° NE 01:32:14 12° ENE 01:35:21 10° E visible
16 Dec - 03:26:11 10° NNW 03:35:06 50° NE 03:44:22 10° ESE visible
16 Dec - 05:30:03 10° WNW 05:39:37 76° SSW 05:49:38 10° ESE visible
16 Dec - 07:35:45 10° WSW 07:45:26 62° S 07:55:28 10° E visible
16 Dec - 09:41:01 10° WSW 09:51:03 90° SE 10:01:17 10° ENE daylight
16 Dec - 11:46:20 10° WSW 11:55:15 37° NW 12:04:15 10° NNE daylight
